Tracking 19832 objects as of 25-Aug-2019
HD Live streaming from Space Station
objects crossing your sky now

FENGYUN 1C DEB

Track FENGYUN 1C DEB now!
10-day predictions


NORAD ID: 30570
Int'l Code: 1999-025ALL
Perigee: 838.5 km
Apogee: 890.9 km
Inclination: 99.0 °
Period: 102.1 minutes
Semi major axis: 7235 km
RCS: 0.044 m2 (small)
Launch date: May 10, 1999
Source: People's Republic of China (PRC)
Launch site: Taiyaun Space Center, China (TSC)

Note: This is SATELLITE DEBRIS
aabbcc
Your satellite tracking list
Your tracking list is empty




NASA's NSSDC Master Catalog

Two Line Element Set (TLE):
1 30570U 99025ALL 19237.54709645  .00000159  00000-0  11404-3 0  9990
2 30570  98.9764 270.4555 0036175 245.2904 278.5082 14.10532943645285
Source of the keplerian elements: AFSPC